Location: Damada
(14.7329°N, 3.1761°W)
Time: 02:31:32
(UTC+00:00)

Cosmos 2369 Rocket - Pass Details

Date: 18 February 2020
Orbit: 827 x 854 km, 71.0° (Epoch: 09 April)

Event Time Altitude Azimuth Distance (km) Brightness Sun altitude
Rises 19:18:21 0° 209° (SSW) 3,360 5.9 -15.3°
Reaches altitude 10° 19:20:52 10° 215° (SW) 2,430 5.2 -15.9°
Maximum altitude 19:26:11 46° 288° (WNW) 1,111 3.2 -17.1°
Drops below altitude 10° 19:31:33 10° 0° (N) 2,449 4.5 -18.4°
Sets 19:34:06 0° 7° (N) 3,388 5.2 -19.0°
